Flag for Brunei Weather past 2 weeks in Bandar Seri Begawan, Brunei

Now
86 °F

Broken clouds.


Feels Like: 95 °F
Forecast: 77 / 89 °F
Wind: 14 mph from West

Location: Brunei Airport

Current Time: Aug 29, 2014 at 1:34:33 PM

Latest Report: Aug 29, 2014 at 1:00 PM


Visibility: N/A

Pressure: 29.83 "Hg

Humidity: 70%

Dew point: 75 °F

Location of Bandar Seri BegawanLocation

Historic Weather in Bandar Seri Begawan — Graph

°F

Bandar Seri Begawan temperature yesterday

Maximum temperature yesterday: 88 °F (at 3:00 PM)
Minimum temperature yesterday: 77 °F (at 1:30 AM)
Average temperature yesterday: 81 °F

Past Weeks' High & Low Weather Summary

 TemperatureHumidityPressure
High90 °F (Aug 23, 2:00 PM)100% (Aug 15, 1:00 AM)29.95 "Hg (Aug 15, 1:00 AM)
Low73 °F (Aug 15, 7:30 AM)59% (Aug 18, 3:30 PM)29.71 "Hg (Aug 24, 4:30 PM)
Average81 °F85%29.84 "Hg
* Reported Aug 14 12:00 Noon — Aug 29 12:30 PM, Bandar Seri Begawan, Weather by CustomWeather, © 2014

Note: Actual official high and low records may vary slightly from our data, if they occured in-between our weather recording intervals... More about our weather records

Advertising

Bandar Seri Begawan weather history for previous 24 hours

 ConditionsComfort  
Time TempWeatherWind HumidityBarometerVisibility
12:30 PM
Aug 29
86 °FBroken clouds.7 mph70%29.83 "HgN/A
12:00 PM86 °FBroken clouds.7 mph70%29.86 "HgN/A
11:30 AM86 °FBroken clouds.9 mph70%29.86 "HgN/A
11:00 AM86 °FBroken clouds.5 mph70%29.86 "HgN/A
10:30 AM86 °FBroken clouds.6 mph70%29.89 "HgN/A
10:00 AM84 °FBroken clouds.6 mph74%29.89 "HgN/A
9:30 AM84 °FBroken clouds.7 mph74%29.89 "HgN/A
9:00 AM82 °FPartly sunny.7 mph79%29.89 "HgN/A
8:30 AM81 °FPartly sunny.7 mph84%29.89 "HgN/A
8:00 AM79 °FPartly sunny.5 mph89%29.86 "HgN/A
7:30 AM77 °FPartly sunny.5 mph94%29.86 "HgN/A
7:00 AM77 °FBroken clouds.5 mph94%29.83 "HgN/A
6:30 AM75 °FBroken clouds.2 mph94%29.83 "HgN/A
6:00 AM75 °FPartly cloudy.3 mph100%29.83 "HgN/A
5:30 AM75 °FPartly cloudy.2 mph94%29.83 "HgN/A
5:00 AM75 °FPartly cloudy.5 mph100%29.83 "HgN/A
4:30 AM75 °FPassing clouds.3 mph100%29.83 "HgN/A
4:00 AM77 °FPassing clouds.2 mph94%29.83 "HgN/A
3:30 AM77 °FPassing clouds.2 mph94%29.83 "HgN/A
3:00 AM77 °FPassing clouds.2 mph94%29.83 "HgN/A
2:30 AM77 °FPassing clouds.3 mph94%29.83 "HgN/A
2:00 AM77 °FPassing clouds.2 mph94%29.83 "HgN/A
1:30 AM77 °FPassing clouds.3 mph94%29.86 "HgN/A
1:00 AM77 °FPassing clouds.3 mph94%29.86 "HgN/A
12:30 AM77 °FPassing clouds.2 mph94%29.86 "HgN/A
12:00 AM77 °FPassing clouds.3 mph94%29.86 "HgN/A
11:30 PM
Aug 28
77 °FPassing clouds.3 mph94%29.89 "HgN/A
11:00 PM77 °FPassing clouds.3 mph94%29.89 "HgN/A
10:30 PM77 °FPartly cloudy.5 mph94%29.89 "HgN/A
10:00 PM77 °FPartly cloudy.3 mph94%29.89 "HgN/A
9:30 PM79 °FLight rain. Passing clouds.3 mph94%29.89 "HgN/A
9:00 PM79 °FSprinkles. Passing clouds.5 mph89%29.89 "HgN/A
8:30 PM79 °FSprinkles. Passing clouds.3 mph89%29.86 "HgN/A
8:00 PM79 °FSprinkles. Partly cloudy.5 mph89%29.86 "HgN/A
7:30 PM81 °FPartly cloudy.7 mph84%29.83 "HgN/A
7:00 PM81 °FPassing clouds.6 mph84%29.83 "HgN/A
6:30 PM82 °FPassing clouds.5 mph79%29.80 "HgN/A
6:00 PM84 °FPartly sunny.5 mph74%29.80 "HgN/A
5:30 PM86 °FPartly sunny.5 mph70%29.80 "HgN/A
5:00 PM86 °FPartly sunny.6 mph66%29.77 "HgN/A
4:30 PM86 °FPartly sunny.7 mph70%29.77 "HgN/A
4:00 PM86 °FPartly sunny.6 mph66%29.77 "HgN/A
3:30 PM86 °FPartly sunny.8 mph66%29.74 "HgN/A
3:00 PM88 °FPartly sunny.7 mph62%29.77 "HgN/A
2:30 PM86 °FPartly sunny.8 mph66%29.77 "HgN/A
2:00 PM86 °FPartly sunny.6 mph70%29.80 "HgN/A
1:30 PM86 °FPartly sunny.5 mph70%29.80 "HgN/A
1:00 PM82 °FSprinkles. Partly sunny.6 mph84%29.83 "Hg5 mi
Weather by CustomWeather, © 2014

See weather overviewHow to use our weather pages